Location: Newark
(34.3481°N, 134.0494°E)
Time: 22:33:38
(UTC+00:00)

Transit 4A - Visible Passes

Search period start: 22 January 2020 00:00
Search period end: 01 February 2020 00:00
Orbit: 871 x 973 km, 66.8° (Epoch: 22 January)

Date Brightness Start Highest point End Pass type
(mag) Time Alt. Az. Time Alt. Az. Time Alt. Az.
22 Jan 9.2 21:06:21 10° S 21:12:04 43° ESE 21:17:40 10° NE visible
23 Jan 8.3 21:15:16 10° SSW 21:21:19 68° ESE 21:27:13 10° NNE visible
24 Jan 10.9 19:42:39 10° SE 19:44:59 12° ESE 19:47:19 10° E visible
24 Jan 7.8 21:24:30 10° SSW 21:30:36 79° WNW 21:36:34 10° NNE visible
25 Jan 10.3 19:49:44 10° SSE 19:54:03 21° ESE 19:58:20 10° ENE visible
25 Jan 8.0 21:34:05 10° SW 21:39:58 52° WNW 21:45:45 10° NNE visible
26 Jan 9.5 19:57:52 10° S 20:03:11 32° ESE 20:08:24 10° NE visible
27 Jan 8.7 20:06:31 10° S 20:12:23 51° ESE 20:18:07 10° NE visible
28 Jan 7.9 20:15:34 10° SSW 20:21:38 79° ESE 20:27:35 10° NNE visible
29 Jan 10.4 18:42:00 10° SE 18:45:15 15° ESE 18:48:28 10° ENE visible
29 Jan 7.7 20:24:56 10° SW 20:30:57 68° WNW 20:36:52 10° NNE visible
30 Jan 9.8 18:52:35 21° SE 18:54:20 24° ESE 18:59:00 10° NE visible
30 Jan 8.1 20:36:16 19° WSW 20:40:21 44° WNW 20:46:00 10° NNE visible
31 Jan 9.0 19:03:46 38° ESE 19:03:46 38° ESE 19:08:55 10° NE visible
31 Jan 8.6 20:47:23 22° W 20:49:50 30° NW 20:54:58 10° N visible
